Terminal Aerodrome Forecast
Issued by NWS

Home | Current Version | Previous Version | Text Only | Print | Product List | Glossary On
Versions: 1 2 3 4 5 6 7 8 9 10 11 12 13 14 15 16 17
000
FTUS43 KFGF 031100
TAFDVL
TAF
KDVL 031120Z 0312/0412 32019G29KT P6SM SCT250
      TEMPO 0312/0315 BKN025
     FM031500 32025G35KT P6SM BKN040
     FM040000 30018KT P6SM SCT250
      AMD LTD TO CLD VIS AND WIND=

USA.gov is the U.S. government's official web portal to all federal, state and local government web resources and services.